Hourly Data Report for September 16, 2017

All times are specified in Local Standard Time (LST). Add 1 hour to adjust for Daylight Saving Time where and when it is observed.

PANGNIRTUNG
NUNAVUT

66°08'36.300" N
65°42'40.500" W
22.60 m
2403049
71826
WXP

Download Data

Hourly Data (September 2017)
Hourly Data Report for September 16, 2017
Temp Definition
°C
Dew Point Temp Definition
°C
Rel Hum Definition
%
Wind Dir Definition
10's deg

Wind Spd Definition
km/h
Visibility Definition
km
Stn Press Definition
kPa
Hmdx Definition


Wind Chill Definition


Weather Definition


TIME
00:00 1.6 0.5 93   0   100.18     LegendNANA
01:00 1.8 0.6 92 24 3   100.18     LegendNANA
02:00 1.4 -0.9 85 16 1   100.19     LegendNANA
03:00 1.4 0.2 92 24 10   100.20     LegendNANA
04:00 1.7 0.5 91 24 15   100.21     LegendNANA
05:00 2.0 0.6 91 25 14   100.22     LegendNANA
06:00 2.1 0.7 91 25 14   100.24     LegendNANA
07:00 1.3 0.6 96 7 7   100.29     LegendNANA
08:00 1.6 1.2 97 3 5   100.29     LegendNANA
09:00 3.1 1.0 86 25 13   100.28     LegendNANA
10:00 4.0 0.8 80 24 17   100.26     LegendNANA
11:00 3.9 0.5 78 24 26   100.25     LegendNANA
12:00 3.9 -0.1 75 25 22   100.27     LegendNANA
13:00 4.8 -0.6 68 25 22   100.28     LegendNANA
14:00 4.9 -0.3 69 24 26   100.30     LegendNANA
15:00 4.7 -0.2 71 25 27   100.32     LegendNANA
16:00 4.0 -0.4 73 25 26   100.35     LegendNANA
17:00 3.7 -0.4 74 25 28   100.36     LegendNANA
18:00 3.6 -0.8 73 24 26   100.37     LegendNANA
19:00 3.6 -1.6 69 29 21   100.38     LegendNANA
20:00 3.5 -2.0 68 26 23   100.39     LegendNANA
21:00 3.0 -1.9 70 27 24   100.36     LegendNANA
22:00 2.6 -1.9 72 26 24   100.37     LegendNANA
23:00 2.4 -2.1 72 26 14   100.38     LegendNANA

Notes on Data Quality.

Legend

  • E = Estimated
  • M = Missing
  • NA = Not Available
  • ‡ = Partner data that is not subject to review by the National Climate Archives
Date modified: